,,,PA_Meas_PMT16A,,PR_Meas_QMR101_102,,RH_Meas_QMH101,,SR_Meas_QMS101,,TA_Meas_QMH101,,GenWind,,GenWind,
date,time,status,PA,status,PR,status,RH,status,SR,status,TA,status,DirAvg,status,SpdAvg,
2010-10-08, 00:00:04,VALID,1010.85,VALID,0,VALID,102.124,VALID,0,VALID,24.0253,VALID,309,VALID,0,
2010-10-08, 00:01:04,VALID,1010.85,VALID,0,VALID,102.124,VALID,0,VALID,24.0253,VALID,309,VALID,0,
2010-10-08, 00:02:04,VALID,1010.83,VALID,0,VALID,102.116,VALID,0,VALID,24.0253,VALID,309,VALID,0,
2010-10-08, 00:03:04,VALID,1010.82,VALID,0,VALID,102.086,VALID,0,VALID,24.0253,VALID,309,VALID,0,
2010-10-08, 00:04:04,VALID,1010.81,VALID,0,VALID,102.109,VALID,0,VALID,24.0058,VALID,309,VALID,0,
2010-10-08, 00:05:04,VALID,1010.79,VALID,0,VALID,102.101,VALID,0,VALID,24.0253,VALID,309,VALID,0,
2010-10-08, 00:06:04,VALID,1010.79,VALID,0,VALID,102.078,VALID,0,VALID,24.0253,VALID,309,VALID,0,
2010-10-08, 00:07:04,VALID,1010.77,VALID,0,VALID,102.04,VALID,0.105969,VALID,24.0429,VALID,309,VALID,0,
2010-10-08, 00:08:04,VALID,1010.74,VALID,0,VALID,102.017,VALID,0.105969,VALID,24.0624,VALID,309,VALID,0,
2010-10-08, 00:09:04,VALID,1010.74,VALID,0,VALID,102.017,VALID,0.105969,VALID,24.0624,VALID,309,VALID,0,
2010-10-08, 00:10:04,VALID,1010.73,VALID,0,VALID,102.01,VALID,0.105969,VALID,24.0624,VALID,309,VALID,0,
2010-10-08, 00:11:04,VALID,1010.73,VALID,0,VALID,102.017,VALID,0.105969,VALID,24.0819,VALID,309,VALID,0,
2010-10-08, 00:12:04,VALID,1010.71,VALID,0,VALID,102.01,VALID,0.105969,VALID,24.1014,VALID,309,VALID,0,
2010-10-08, 00:13:04,VALID,1010.73,VALID,0,VALID,101.994,VALID,0.105969,VALID,24.0819,VALID,309,VALID,0,
2010-10-08, 00:14:04,VALID,1010.68,VALID,0,VALID,102.01,VALID,0.105969,VALID,24.1014,VALID,309,VALID,0,
2010-10-08, 00:15:04,VALID,1010.67,VALID,0,VALID,102.017,VALID,0.105969,VALID,24.0819,VALID,309,VALID,0,
2010-10-08, 00:16:04,VALID,1010.64,VALID,0,VALID,101.987,VALID,0.105969,VALID,24.0606,VALID,309,VALID,0,
2010-10-08, 00:17:04,VALID,1010.63,VALID,0,VALID,101.994,VALID,0.105969,VALID,24.1227,VALID,309,VALID,0,
2010-10-08, 00:18:04,VALID,1010.64,VALID,0,VALID,101.972,VALID,0.105969,VALID,24.1209,VALID,309,VALID,0,
2010-10-08, 00:19:04,VALID,1010.63,VALID,0,VALID,101.979,VALID,0.105969,VALID,24.1209,VALID,309,VALID,0,
2010-10-08, 00:20:04,VALID,1010.59,VALID,0,VALID,101.933,VALID,0.105969,VALID,24.1599,VALID,309,VALID,0,
2010-10-08, 00:21:04,VALID,1010.56,VALID,0,VALID,101.941,VALID,0.105969,VALID,24.1599,VALID,309,VALID,0,
2010-10-08, 00:22:04,VALID,1010.53,VALID,0,VALID,101.933,VALID,0,VALID,24.1812,VALID,309,VALID,0,
2010-10-08, 00:23:04,VALID,1010.51,VALID,0,VALID,101.933,VALID,0,VALID,24.1812,VALID,309,VALID,0,
2010-10-08, 00:24:04,VALID,1010.48,VALID,0,VALID,101.926,VALID,0,VALID,24.2007,VALID,309,VALID,0,
2010-10-08, 00:25:04,VALID,1010.45,VALID,0,VALID,101.918,VALID,0,VALID,24.2025,VALID,309,VALID,0,
2010-10-08, 00:26:04,VALID,1010.4,VALID,0,VALID,101.926,VALID,0,VALID,24.1812,VALID,309,VALID,0,
2010-10-08, 00:27:04,VALID,1010.38,VALID,0,VALID,101.949,VALID,0,VALID,24.2025,VALID,309,VALID,0,
2010-10-08, 00:28:04,VALID,1010.34,VALID,0,VALID,101.941,VALID,0,VALID,24.1617,VALID,309,VALID,0,
2010-10-08, 00:29:04,VALID,1010.34,VALID,0,VALID,101.949,VALID,0,VALID,24.1617,VALID,309,VALID,0,
2010-10-08, 00:30:04,VALID,1010.31,VALID,0,VALID,101.911,VALID,0,VALID,24.1812,VALID,309,VALID,0,
2010-10-08, 00:31:04,VALID,1010.32,VALID,0,VALID,101.949,VALID,0,VALID,24.2025,VALID,309,VALID,0,
2010-10-08, 00:32:04,VALID,1010.3,VALID,0,VALID,101.987,VALID,0,VALID,24.183,VALID,309,VALID,0,
2010-10-08, 00:33:04,VALID,1010.27,VALID,0,VALID,101.972,VALID,0,VALID,24.1617,VALID,309,VALID,0,
2010-10-08, 00:34:04,VALID,1010.28,VALID,0,VALID,101.941,VALID,0,VALID,24.1422,VALID,309,VALID,0,
2010-10-08, 00:35:04,VALID,1010.28,VALID,0,VALID,101.979,VALID,0,VALID,24.1227,VALID,309,VALID,0,
2010-10-08, 00:36:04,VALID,1010.25,VALID,0,VALID,101.979,VALID,0,VALID,24.1227,VALID,309,VALID,0,
2010-10-08, 00:37:04,VALID,1010.24,VALID,0,VALID,101.987,VALID,0,VALID,24.1227,VALID,309,VALID,0,
2010-10-08, 00:38:04,VALID,1010.2,VALID,0,VALID,101.956,VALID,0,VALID,24.1227,VALID,309,VALID,0,
2010-10-08, 00:39:04,VALID,1010.22,VALID,0,VALID,101.956,VALID,0,VALID,24.144,VALID,309,VALID,0,
2010-10-08, 00:40:04,VALID,1010.19,VALID,0,VALID,101.979,VALID,0,VALID,24.1032,VALID,309,VALID,0,
2010-10-08, 00:41:04,VALID,1010.19,VALID,0,VALID,101.964,VALID,0,VALID,24.1227,VALID,309,VALID,0,
2010-10-08, 00:42:04,VALID,1010.17,VALID,0,VALID,101.949,VALID,0,VALID,24.1032,VALID,309,VALID,0,
2010-10-08, 00:43:04,VALID,1010.17,VALID,0,VALID,101.926,VALID,0,VALID,24.144,VALID,309,VALID,0,
2010-10-08, 00:44:04,VALID,1010.15,VALID,0,VALID,101.926,VALID,0,VALID,24.1227,VALID,309,VALID,0,
2010-10-08, 00:45:04,VALID,1010.14,VALID,0,VALID,101.918,VALID,0,VALID,24.144,VALID,309,VALID,0,
2010-10-08, 00:46:04,VALID,1010.14,VALID,0,VALID,101.895,VALID,0,VALID,24.1422,VALID,79,VALID,0,
2010-10-08, 00:47:04,VALID,1010.13,VALID,0,VALID,101.903,VALID,0,VALID,24.1227,VALID,79,VALID,0,
2010-10-08, 00:48:04,VALID,1010.13,VALID,0,VALID,101.933,VALID,0,VALID,24.1422,VALID,79,VALID,0,
2010-10-08, 00:49:04,VALID,1010.13,VALID,0,VALID,101.926,VALID,0,VALID,24.1617,VALID,79,VALID,0,
2010-10-08, 00:50:04,VALID,1010.08,VALID,0,VALID,101.926,VALID,0,VALID,24.1617,VALID,79,VALID,0.336719,
2010-10-08, 00:51:04,VALID,1010.06,VALID,0,VALID,101.911,VALID,0,VALID,24.1422,VALID,79,VALID,0.191016,
2010-10-08, 00:52:04,VALID,1010.04,VALID,0,VALID,101.941,VALID,0.105969,VALID,24.1209,VALID,79,VALID,0,
2010-10-08, 00:53:04,VALID,1010.04,VALID,0,VALID,101.956,VALID,0,VALID,24.1209,VALID,79,VALID,0,
2010-10-08, 00:54:04,VALID,1010.03,VALID,0,VALID,101.941,VALID,0,VALID,24.1209,VALID,79,VALID,0,
2010-10-08, 00:55:04,VALID,1009.99,VALID,0,VALID,101.926,VALID,0,VALID,24.1209,VALID,79,VALID,0,
2010-10-08, 00:56:04,VALID,1009.98,VALID,0,VALID,101.911,VALID,0.105969,VALID,24.1404,VALID,79,VALID,0,
2010-10-08, 00:57:04,VALID,1009.95,VALID,0,VALID,101.926,VALID,0,VALID,24.1617,VALID,79,VALID,0.713672,
2010-10-08, 00:58:04,VALID,1009.92,VALID,0,VALID,101.918,VALID,0,VALID,24.1404,VALID,83,VALID,0.771875,
2010-10-08, 00:59:04,VALID,1009.93,VALID,0,VALID,101.926,VALID,0,VALID,24.1617,VALID,85,VALID,0.759375,
2010-10-08, 01:00:04,VALID,1009.89,VALID,0,VALID,101.933,VALID,0.105969,VALID,24.1209,VALID,71,VALID,1.10547,
2010-10-08, 01:01:04,VALID,1009.87,VALID,0,VALID,101.994,VALID,0,VALID,24.0819,VALID,84,VALID,0.933594,
2010-10-08, 01:02:04,VALID,1009.83,VALID,0,VALID,101.994,VALID,0.105969,VALID,24.0819,VALID,55,VALID,0.825781,
2010-10-08, 01:03:04,VALID,1009.81,VALID,0,VALID,101.994,VALID,0.105969,VALID,24.0819,VALID,71,VALID,0.575391,
2010-10-08, 01:04:04,VALID,1009.82,VALID,0,VALID,101.994,VALID,0.105969,VALID,24.0624,VALID,93,VALID,1.00234,
2010-10-08, 01:05:04,VALID,1009.78,VALID,0,VALID,101.979,VALID,0,VALID,24.0624,VALID,82,VALID,0.825781,
2010-10-08, 01:06:04,VALID,1009.76,VALID,0,VALID,101.994,VALID,0.105969,VALID,24.0429,VALID,88,VALID,0.5625,
2010-10-08, 01:07:04,VALID,1009.75,VALID,0,VALID,101.987,VALID,0,VALID,24.0661,VALID,86,VALID,0.825,
2010-10-08, 01:08:04,VALID,1009.76,VALID,0,VALID,101.994,VALID,0,VALID,24.0253,VALID,82,VALID,0.481641,
2010-10-08, 01:09:04,VALID,1009.73,VALID,0,VALID,102.017,VALID,0,VALID,24.0058,VALID,60,VALID,0.359375,
2010-10-08, 01:10:04,VALID,1009.73,VALID,0,VALID,102.017,VALID,0,VALID,24.0058,VALID,82,VALID,0.509375,
2010-10-08, 01:11:04,VALID,1009.72,VALID,0,VALID,101.987,VALID,0,VALID,24.0058,VALID,86,VALID,0.7,
2010-10-08, 01:12:04,VALID,1009.72,VALID,0,VALID,101.987,VALID,0,VALID,24.0076,VALID,78,VALID,0.60625,
2010-10-08, 01:13:04,VALID,1009.7,VALID,0,VALID,101.956,VALID,0,VALID,24.0058,VALID,76,VALID,0.538672,
2010-10-08, 01:14:04,VALID,1009.7,VALID,0,VALID,102.002,VALID,0,VALID,23.9668,VALID,79,VALID,0.637109,
2010-10-08, 01:15:04,VALID,1009.69,VALID,0,VALID,101.994,VALID,0,VALID,23.9473,VALID,79,VALID,0.767969,
2010-10-08, 01:16:04,VALID,1009.68,VALID,0,VALID,102.002,VALID,0,VALID,23.9473,VALID,79,VALID,0.690234,
2010-10-08, 01:17:04,VALID,1009.65,VALID,0,VALID,101.987,VALID,0,VALID,23.9686,VALID,79,VALID,0.238281,
2010-10-08, 01:18:04,VALID,1009.62,VALID,0,VALID,101.972,VALID,0,VALID,23.9473,VALID,79,VALID,0.542578,
2010-10-08, 01:19:04,VALID,1009.63,VALID,0,VALID,102.002,VALID,0,VALID,23.9278,VALID,80,VALID,0.723047,
2010-10-08, 01:20:04,VALID,1009.6,VALID,0,VALID,101.964,VALID,0,VALID,23.9473,VALID,87,VALID,0.628516,
2010-10-08, 01:21:04,VALID,1009.57,VALID,0,VALID,101.979,VALID,0,VALID,23.9278,VALID,88,VALID,0.652344,
2010-10-08, 01:22:04,VALID,1009.59,VALID,0,VALID,101.979,VALID,0,VALID,23.9473,VALID,89,VALID,0.451172,
2010-10-08, 01:23:04,VALID,1009.57,VALID,0,VALID,101.941,VALID,0,VALID,23.9668,VALID,89,VALID,0.236328,
2010-10-08, 01:24:04,VALID,1009.56,VALID,0,VALID,101.933,VALID,0,VALID,23.9473,VALID,111,VALID,0.521484,
2010-10-08, 01:25:04,VALID,1009.55,VALID,0,VALID,102.002,VALID,0,VALID,23.9084,VALID,118,VALID,0.835547,
2010-10-08, 01:26:04,VALID,1009.56,VALID,0,VALID,101.964,VALID,0,VALID,23.9297,VALID,107,VALID,0.409766,
2010-10-08, 01:27:04,VALID,1009.53,VALID,0,VALID,101.994,VALID,0,VALID,23.9084,VALID,107,VALID,0.458594,
2010-10-08, 01:28:04,VALID,1009.52,VALID,0,VALID,101.987,VALID,0,VALID,23.8889,VALID,134,VALID,0.464063,
2010-10-08, 01:29:04,VALID,1009.49,VALID,0,VALID,102.017,VALID,0,VALID,23.8499,VALID,134,VALID,0.65,
2010-10-08, 01:30:04,VALID,1009.46,VALID,0,VALID,102.033,VALID,0,VALID,23.8499,VALID,134,VALID,0.828516,
2010-10-08, 01:31:04,VALID,1009.45,VALID,0,VALID,102.033,VALID,0,VALID,23.8304,VALID,134,VALID,0.644531,
2010-10-08, 01:32:04,VALID,1009.42,VALID,0,VALID,102.017,VALID,0,VALID,23.8499,VALID,134,VALID,0.473828,
2010-10-08, 01:33:04,VALID,1009.43,VALID,0,VALID,102.002,VALID,0,VALID,23.8304,VALID,134,VALID,0.214062,
2010-10-08, 01:34:04,VALID,1009.42,VALID,0,VALID,101.964,VALID,0,VALID,23.8499,VALID,134,VALID,0,
2010-10-08, 01:35:04,VALID,1009.4,VALID,0,VALID,101.941,VALID,0,VALID,23.8499,VALID,134,VALID,0.359375,
2010-10-08, 01:36:04,VALID,1009.39,VALID,0,VALID,101.964,VALID,0,VALID,23.8499,VALID,134,VALID,0.730469,
2010-10-08, 01:37:04,VALID,1009.36,VALID,0,VALID,101.949,VALID,0,VALID,23.8091,VALID,134,VALID,0.580859,
2010-10-08, 01:38:04,VALID,1009.38,VALID,0,VALID,101.949,VALID,0,VALID,23.8304,VALID,134,VALID,0.713281,
2010-10-08, 01:39:04,VALID,1009.33,VALID,0,VALID,101.979,VALID,0,VALID,23.8304,VALID,112,VALID,0.863672,
2010-10-08, 01:40:04,VALID,1009.33,VALID,0,VALID,101.972,VALID,0,VALID,23.8304,VALID,112,VALID,0.328516,
2010-10-08, 01:41:04,VALID,1009.33,VALID,0,VALID,101.964,VALID,0,VALID,23.8109,VALID,112,VALID,0.523047,
2010-10-08, 01:42:04,VALID,1009.31,VALID,0,VALID,101.964,VALID,0,VALID,23.8109,VALID,112,VALID,0.681641,
2010-10-08, 01:43:04,VALID,1009.27,VALID,0,VALID,101.941,VALID,0,VALID,23.8304,VALID,112,VALID,0.326953,
2010-10-08, 01:44:04,VALID,1009.26,VALID,0,VALID,101.941,VALID,0,VALID,23.8499,VALID,114,VALID,0.542188,
2010-10-08, 01:45:04,VALID,1009.24,VALID,0,VALID,101.949,VALID,0,VALID,23.8304,VALID,121,VALID,0.530469,
2010-10-08, 01:46:04,VALID,1009.18,VALID,0,VALID,101.941,VALID,0,VALID,23.8517,VALID,121,VALID,0.582422,
2010-10-08, 01:47:04,VALID,1009.18,VALID,0,VALID,101.941,VALID,0,VALID,23.8304,VALID,121,VALID,0.266016,
2010-10-08, 01:48:04,VALID,1009.15,VALID,0,VALID,101.949,VALID,0,VALID,23.8517,VALID,97,VALID,0.753516,
2010-10-08, 01:49:04,VALID,1009.13,VALID,0,VALID,101.956,VALID,0,VALID,23.8304,VALID,97,VALID,0.375391,
2010-10-08, 01:50:04,VALID,1009.08,VALID,0,VALID,101.956,VALID,0,VALID,23.8304,VALID,98,VALID,0.484375,
2010-10-08, 01:51:04,VALID,1009.1,VALID,0,VALID,101.949,VALID,0,VALID,23.8109,VALID,124,VALID,0.619141,
2010-10-08, 01:52:04,VALID,1009.07,VALID,0,VALID,101.964,VALID,0,VALID,23.8322,VALID,135,VALID,0.991016,
2010-10-08, 01:53:04,VALID,1009.06,VALID,0,VALID,101.987,VALID,0,VALID,23.8127,VALID,140,VALID,0.864062,
2010-10-08, 01:54:04,VALID,1009.06,VALID,0,VALID,101.987,VALID,0,VALID,23.772,VALID,132,VALID,0.705078,
2010-10-08, 01:55:04,VALID,1009.05,VALID,0,VALID,102.01,VALID,0,VALID,23.7525,VALID,133,VALID,0.820313,
2010-10-08, 01:56:04,VALID,1009,VALID,0,VALID,102.017,VALID,0,VALID,23.7525,VALID,139,VALID,0.934766,
2010-10-08, 01:57:04,VALID,1009.01,VALID,0,VALID,101.994,VALID,0,VALID,23.7525,VALID,141,VALID,0.965625,
2010-10-08, 01:58:04,VALID,1008.99,VALID,0,VALID,101.979,VALID,0,VALID,23.7525,VALID,129,VALID,1.02266,
2010-10-08, 01:59:04,VALID,1009,VALID,0,VALID,101.987,VALID,0,VALID,23.7525,VALID,129,VALID,0.907422,
2010-10-08, 02:00:04,VALID,1008.99,VALID,0,VALID,101.972,VALID,0,VALID,23.7543,VALID,134,VALID,0.939844,
2010-10-08, 02:01:04,VALID,1009.01,VALID,0,VALID,101.979,VALID,0,VALID,23.7525,VALID,130,VALID,0.623438,
2010-10-08, 02:02:04,VALID,1008.99,VALID,0,VALID,101.964,VALID,0,VALID,23.7525,VALID,117,VALID,0.645703,
2010-10-08, 02:03:04,VALID,1008.99,VALID,0,VALID,101.956,VALID,0,VALID,23.7525,VALID,116,VALID,1.01328,
2010-10-08, 02:04:04,VALID,1008.96,VALID,0,VALID,101.956,VALID,0,VALID,23.7525,VALID,118,VALID,0.505078,
2010-10-08, 02:05:04,VALID,1008.96,VALID,0,VALID,101.949,VALID,0,VALID,23.7738,VALID,124,VALID,0.825,
2010-10-08, 02:06:04,VALID,1008.97,VALID,0,VALID,101.956,VALID,0,VALID,23.7738,VALID,136,VALID,1.02539,
2010-10-08, 02:07:04,VALID,1008.95,VALID,0,VALID,101.941,VALID,0.105969,VALID,23.7507,VALID,126,VALID,0.867578,
2010-10-08, 02:08:04,VALID,1008.88,VALID,0,VALID,101.926,VALID,0,VALID,23.7701,VALID,121,VALID,0.928906,
2010-10-08, 02:09:04,VALID,1008.91,VALID,0,VALID,101.918,VALID,0.105969,VALID,23.7701,VALID,121,VALID,0.49375,
2010-10-08, 02:10:04,VALID,1008.86,VALID,0,VALID,101.941,VALID,0.105969,VALID,23.7896,VALID,135,VALID,1.12656,
2010-10-08, 02:11:04,VALID,1008.88,VALID,0,VALID,101.933,VALID,0.105969,VALID,23.7701,VALID,112,VALID,0.955078,
2010-10-08, 02:12:04,VALID,1008.89,VALID,0,VALID,101.933,VALID,0.105969,VALID,23.7896,VALID,119,VALID,0.739844,
2010-10-08, 02:13:04,VALID,1008.87,VALID,0,VALID,101.941,VALID,0.105969,VALID,23.7914,VALID,125,VALID,0.986328,
2010-10-08, 02:14:04,VALID,1008.86,VALID,0,VALID,101.895,VALID,0.105969,VALID,23.7701,VALID,123,VALID,0.994531,
2010-10-08, 02:15:04,VALID,1008.8,VALID,0,VALID,101.918,VALID,0.105969,VALID,23.7701,VALID,123,VALID,0.955859,
2010-10-08, 02:16:04,VALID,1008.79,VALID,0,VALID,101.903,VALID,0.105969,VALID,23.8109,VALID,111,VALID,0.244141,
2010-10-08, 02:17:04,VALID,1008.77,VALID,0,VALID,101.926,VALID,0,VALID,23.8109,VALID,126,VALID,0.389062,
2010-10-08, 02:18:04,VALID,1008.78,VALID,0,VALID,101.903,VALID,0.105969,VALID,23.7896,VALID,123,VALID,0.549219,
2010-10-08, 02:19:04,VALID,1008.77,VALID,0,VALID,101.918,VALID,0,VALID,23.7896,VALID,122,VALID,0.396484,
2010-10-08, 02:20:04,VALID,1008.8,VALID,0,VALID,101.918,VALID,0.105969,VALID,23.7896,VALID,93,VALID,0.283594,
2010-10-08, 02:21:04,VALID,1008.76,VALID,0,VALID,101.872,VALID,0,VALID,23.7896,VALID,93,VALID,0.31875,
2010-10-08, 02:22:04,VALID,1008.77,VALID,0,VALID,101.88,VALID,0.105969,VALID,23.8091,VALID,93,VALID,0.213672,
2010-10-08, 02:23:04,VALID,1008.77,VALID,0,VALID,101.888,VALID,0.105969,VALID,23.7896,VALID,93,VALID,0.444141,
2010-10-08, 02:24:04,VALID,1008.75,VALID,0,VALID,101.911,VALID,0,VALID,23.7896,VALID,93,VALID,0.608984,
2010-10-08, 02:25:04,VALID,1008.75,VALID,0,VALID,101.926,VALID,0,VALID,23.8109,VALID,93,VALID,0.262891,
2010-10-08, 02:26:04,VALID,1008.76,VALID,0,VALID,101.903,VALID,0,VALID,23.8109,VALID,93,VALID,0.00117188,
2010-10-08, 02:27:04,VALID,1008.71,VALID,0,VALID,101.918,VALID,0.105969,VALID,23.7896,VALID,93,VALID,0.219531,
2010-10-08, 02:28:04,VALID,1008.73,VALID,0,VALID,101.88,VALID,0,VALID,23.7896,VALID,93,VALID,0.184375,
2010-10-08, 02:29:04,VALID,1008.72,VALID,0,VALID,101.872,VALID,0,VALID,23.8091,VALID,93,VALID,0,
2010-10-08, 02:30:04,VALID,1008.71,VALID,0,VALID,101.888,VALID,0.105969,VALID,23.7896,VALID,93,VALID,0.301562,
2010-10-08, 02:31:04,VALID,1008.71,VALID,0,VALID,101.903,VALID,0.105969,VALID,23.8109,VALID,93,VALID,0.0511719,
2010-10-08, 02:32:04,VALID,1008.69,VALID,0,VALID,101.895,VALID,0,VALID,23.8091,VALID,93,VALID,0,
2010-10-08, 02:33:04,VALID,1008.66,VALID,0,VALID,101.88,VALID,0.105969,VALID,23.8091,VALID,93,VALID,0,
2010-10-08, 02:34:04,VALID,1008.69,VALID,0,VALID,101.85,VALID,0.105969,VALID,23.8499,VALID,93,VALID,0.046875,
2010-10-08, 02:35:04,VALID,1008.67,VALID,0,VALID,101.888,VALID,0.105969,VALID,23.8109,VALID,93,VALID,0.700391,
2010-10-08, 02:36:04,VALID,1008.65,VALID,0,VALID,101.903,VALID,0,VALID,23.7896,VALID,91,VALID,0.469922,
2010-10-08, 02:37:04,VALID,1008.64,VALID,0,VALID,101.903,VALID,0,VALID,23.7914,VALID,79,VALID,0.70625,
2010-10-08, 02:38:04,VALID,1008.64,VALID,0,VALID,101.911,VALID,0,VALID,23.7701,VALID,78,VALID,0.894922,
2010-10-08, 02:39:04,VALID,1008.66,VALID,0,VALID,101.918,VALID,0,VALID,23.7701,VALID,79,VALID,0.598828,
2010-10-08, 02:40:04,VALID,1008.68,VALID,0,VALID,101.911,VALID,0,VALID,23.7914,VALID,79,VALID,0.571875,
2010-10-08, 02:41:04,VALID,1008.68,VALID,0,VALID,101.903,VALID,0.105969,VALID,23.7701,VALID,85,VALID,0.792188,
2010-10-08, 02:42:04,VALID,1008.65,VALID,0,VALID,101.895,VALID,0.105969,VALID,23.7507,VALID,71,VALID,0.671094,
2010-10-08, 02:43:04,VALID,1008.65,VALID,0,VALID,101.918,VALID,0.105969,VALID,23.7701,VALID,97,VALID,0.554688,
2010-10-08, 02:44:04,VALID,1008.66,VALID,0,VALID,101.911,VALID,0.105969,VALID,23.7914,VALID,96,VALID,0.332812,
2010-10-08, 02:45:04,VALID,1008.67,VALID,0,VALID,101.911,VALID,0.105969,VALID,23.7701,VALID,81,VALID,0.696094,
2010-10-08, 02:46:04,VALID,1008.68,VALID,0,VALID,101.903,VALID,0,VALID,23.7507,VALID,84,VALID,0.773438,
2010-10-08, 02:47:04,VALID,1008.69,VALID,0,VALID,101.918,VALID,0.105969,VALID,23.7507,VALID,100,VALID,0.733984,
2010-10-08, 02:48:04,VALID,1008.7,VALID,0,VALID,101.911,VALID,0.105969,VALID,23.7507,VALID,102,VALID,0.626562,
2010-10-08, 02:49:04,VALID,1008.7,VALID,0,VALID,101.918,VALID,0.105969,VALID,23.7507,VALID,102,VALID,0.508203,
2010-10-08, 02:50:04,VALID,1008.7,VALID,0,VALID,101.903,VALID,0.105969,VALID,23.7507,VALID,91,VALID,0.905078,
2010-10-08, 02:51:04,VALID,1008.67,VALID,0,VALID,101.918,VALID,0.105969,VALID,23.7525,VALID,101,VALID,0.566797,
2010-10-08, 02:52:04,VALID,1008.67,VALID,0,VALID,101.888,VALID,0,VALID,23.7701,VALID,115,VALID,0.645703,
2010-10-08, 02:53:04,VALID,1008.66,VALID,0,VALID,101.911,VALID,0,VALID,23.772,VALID,122,VALID,1.13125,
2010-10-08, 02:54:04,VALID,1008.67,VALID,0,VALID,101.903,VALID,0,VALID,23.7525,VALID,112,VALID,1.05273,
2010-10-08, 02:55:04,VALID,1008.65,VALID,0,VALID,101.941,VALID,0,VALID,23.7117,VALID,100,VALID,1.16055,
2010-10-08, 02:56:04,VALID,1008.65,VALID,0,VALID,101.956,VALID,0.105969,VALID,23.7135,VALID,113,VALID,0.565625,
2010-10-08, 02:57:04,VALID,1008.62,VALID,0,VALID,101.895,VALID,0,VALID,23.7525,VALID,133,VALID,0.917578,
2010-10-08, 02:58:04,VALID,1008.64,VALID,0,VALID,101.956,VALID,0.105969,VALID,23.7135,VALID,137,VALID,1.30703,
2010-10-08, 02:59:04,VALID,1008.62,VALID,0,VALID,101.949,VALID,0.105969,VALID,23.6922,VALID,144,VALID,0.829687,
2010-10-08, 03:00:04,VALID,1008.64,VALID,0,VALID,101.956,VALID,0,VALID,23.6922,VALID,144,VALID,0.528906,
2010-10-08, 03:01:04,VALID,1008.63,VALID,0,VALID,101.926,VALID,0.105969,VALID,23.6922,VALID,144,VALID,0.249609,
2010-10-08, 03:02:04,VALID,1008.62,VALID,0,VALID,101.926,VALID,0,VALID,23.6922,VALID,144,VALID,0.453516,
2010-10-08, 03:03:04,VALID,1008.62,VALID,0,VALID,101.926,VALID,0,VALID,23.6727,VALID,144,VALID,0.0960938,
2010-10-08, 03:04:04,VALID,1008.6,VALID,0,VALID,101.933,VALID,0.105969,VALID,23.694,VALID,122,VALID,0.683594,
2010-10-08, 03:05:04,VALID,1008.56,VALID,0,VALID,101.926,VALID,0,VALID,23.6727,VALID,121,VALID,0.473437,
2010-10-08, 03:06:04,VALID,1008.57,VALID,0,VALID,101.903,VALID,0.105969,VALID,23.694,VALID,121,VALID,0.382422,
2010-10-08, 03:07:04,VALID,1008.56,VALID,0,VALID,101.911,VALID,0,VALID,23.6727,VALID,114,VALID,0.417969,
2010-10-08, 03:08:04,VALID,1008.56,VALID,0,VALID,101.941,VALID,0.105969,VALID,23.6338,VALID,130,VALID,1.36016,
2010-10-08, 03:09:04,VALID,1008.58,VALID,0,VALID,101.933,VALID,0,VALID,23.6532,VALID,139,VALID,0.771875,
2010-10-08, 03:10:04,VALID,1008.58,VALID,0,VALID,101.949,VALID,0,VALID,23.6338,VALID,136,VALID,0.930859,
2010-10-08, 03:11:04,VALID,1008.58,VALID,0,VALID,101.956,VALID,0.105969,VALID,23.655,VALID,123,VALID,0.821484,
2010-10-08, 03:12:04,VALID,1008.58,VALID,0,VALID,101.949,VALID,0,VALID,23.6338,VALID,109,VALID,0.633203,
2010-10-08, 03:13:04,VALID,1008.58,VALID,0,VALID,101.926,VALID,0.105969,VALID,23.6338,VALID,125,VALID,0.747656,
2010-10-08, 03:14:04,VALID,1008.57,VALID,0,VALID,101.926,VALID,0.105969,VALID,23.632,VALID,130,VALID,0.688281,
2010-10-08, 03:15:04,VALID,1008.55,VALID,0,VALID,101.911,VALID,0,VALID,23.6143,VALID,122,VALID,0.980859,
2010-10-08, 03:16:04,VALID,1008.56,VALID,0,VALID,101.918,VALID,0.105969,VALID,23.6338,VALID,132,VALID,0.784375,
2010-10-08, 03:17:04,VALID,1008.58,VALID,0,VALID,101.895,VALID,0.105969,VALID,23.6532,VALID,143,VALID,0.570703,
2010-10-08, 03:18:04,VALID,1008.6,VALID,0,VALID,101.918,VALID,0,VALID,23.6143,VALID,141,VALID,0.763281,
2010-10-08, 03:19:04,VALID,1008.6,VALID,0,VALID,101.895,VALID,0.105969,VALID,23.655,VALID,141,VALID,0.376953,
2010-10-08, 03:20:04,VALID,1008.59,VALID,0,VALID,101.933,VALID,0,VALID,23.6143,VALID,131,VALID,0.675781,
2010-10-08, 03:21:04,VALID,1008.63,VALID,0,VALID,101.933,VALID,0,VALID,23.6338,VALID,131,VALID,0.7,
2010-10-08, 03:22:04,VALID,1008.66,VALID,0,VALID,101.926,VALID,0,VALID,23.6161,VALID,131,VALID,0.400391,
2010-10-08, 03:23:04,VALID,1008.66,VALID,0,VALID,101.911,VALID,0,VALID,23.6356,VALID,129,VALID,0.361328,
2010-10-08, 03:24:04,VALID,1008.67,VALID,0,VALID,101.903,VALID,0,VALID,23.6356,VALID,108,VALID,0,
2010-10-08, 03:25:04,VALID,1008.68,VALID,0,VALID,101.903,VALID,0,VALID,23.6356,VALID,108,VALID,0,
2010-10-08, 03:26:04,VALID,1008.69,VALID,0,VALID,101.911,VALID,0,VALID,23.6161,VALID,127,VALID,0,
2010-10-08, 03:27:04,VALID,1008.7,VALID,0,VALID,101.895,VALID,0,VALID,23.6356,VALID,127,VALID,0,
2010-10-08, 03:28:04,VALID,1008.69,VALID,0,VALID,101.911,VALID,0,VALID,23.6161,VALID,111,VALID,0.451172,
2010-10-08, 03:29:04,VALID,1008.67,VALID,0,VALID,101.895,VALID,0,VALID,23.6373,VALID,116,VALID,0.882813,
2010-10-08, 03:30:04,VALID,1008.67,VALID,0,VALID,101.895,VALID,0,VALID,23.6356,VALID,117,VALID,0.699219,
2010-10-08, 03:31:04,VALID,1008.66,VALID,0,VALID,101.911,VALID,0,VALID,23.6568,VALID,115,VALID,0.717969,
2010-10-08, 03:32:04,VALID,1008.66,VALID,0,VALID,101.895,VALID,0,VALID,23.6356,VALID,126,VALID,0.758203,
2010-10-08, 03:33:04,VALID,1008.64,VALID,0,VALID,101.911,VALID,0,VALID,23.655,VALID,126,VALID,0.758203,
2010-10-08, 03:34:04,VALID,1008.64,VALID,0,VALID,101.903,VALID,0,VALID,23.655,VALID,127,VALID,0.722266,
2010-10-08, 03:35:04,VALID,1008.64,VALID,0,VALID,101.911,VALID,0,VALID,23.6568,VALID,118,VALID,0.584375,
2010-10-08, 03:36:04,VALID,1008.63,VALID,0,VALID,101.903,VALID,0,VALID,23.6356,VALID,119,VALID,0.900391,
2010-10-08, 03:37:04,VALID,1008.64,VALID,0,VALID,101.903,VALID,0,VALID,23.6338,VALID,125,VALID,0.853516,
2010-10-08, 03:38:04,VALID,1008.63,VALID,0,VALID,101.911,VALID,0.105969,VALID,23.6338,VALID,125,VALID,0.426562,
2010-10-08, 03:39:04,VALID,1008.6,VALID,0,VALID,101.911,VALID,0.105969,VALID,23.6338,VALID,125,VALID,0.547266,
2010-10-08, 03:40:04,VALID,1008.6,VALID,0,VALID,101.903,VALID,0.105969,VALID,23.6338,VALID,125,VALID,0.655859,
2010-10-08, 03:41:04,VALID,1008.61,VALID,0,VALID,101.895,VALID,0,VALID,23.6338,VALID,125,VALID,0.643359,
2010-10-08, 03:42:04,VALID,1008.61,VALID,0,VALID,101.933,VALID,0.105969,VALID,23.6338,VALID,122,VALID,0.735156,
2010-10-08, 03:43:04,VALID,1008.63,VALID,0,VALID,101.918,VALID,0,VALID,23.6356,VALID,115,VALID,0.848828,
2010-10-08, 03:44:04,VALID,1008.61,VALID,0,VALID,101.956,VALID,0,VALID,23.6143,VALID,120,VALID,0.780078,